User: anonymous   Login
Location: Saint Peter Port
(49.4500°N, 2.5330°W)
Time: 10:31:46
(UTC+01:00)
Language:

Cosmos 2242 Rocket - Orbit

View from above orbital plane
View from above orbital plane
View from above satellite
View from above satellite

Ground track
Ground track

The orbit data is extracted from the following two-line orbital elements,

1 22627U 93024B   17117.65736789 +.00000074 +00000-0 +69840-5 0  9998
2 22627 082.5208 147.0606 0024688 133.4752 006.0805 14.78075202294687
Epoch (UTC): 27 April 2017 15:46:36
Eccentricity: 0.0024688
inclination: 82.5208°
perigee height: 618 km
apogee height: 653 km
right ascension of ascending node: 147.0606°
argument of perigee: 133.4752°
revolutions per day: 14.78075202
mean anomaly at epoch: 6.0805°
orbit number at epoch: 29468

The dashed part of the orbit path shows where the satellite is in the earth's shadow,  

DLR